Flag for U.S.A. Weather past 2 weeks in Paradise, Nevada, U.S.A.

Now
96 °F

Passing clouds.


Feels Like: 91 °F
Forecast: 69 / 92 °F
Wind: 14 mph from West

Location: McCarran International Airport

Current Time: Sep 3, 2015 at 7:08:18 PM

Latest Report: Sep 3, 2015 at 5:56 PM


Visibility: 10 mi

Pressure: 29.58 "Hg (27.55 "Hg at 643m altitude)

Humidity: 10%

Dew point: 32 °F

Location of ParadiseLocation

Historic Weather in Paradise — Graph

°F

Paradise temperature yesterday

Maximum temperature yesterday: 100 °F (at 2:56 PM)
Minimum temperature yesterday: 83 °F (at 5:56 AM)
Average temperature yesterday: 91 °F

Past Weeks' High & Low Weather Summary

 TemperatureHumidityPressure
High107 °F (Aug 20, 3:56 PM)48% (Aug 26, 10:56 AM)29.99 "Hg (Aug 26, 10:56 AM)
Low79 °F (Sep 3, 5:56 AM)5% (Aug 23, 4:56 PM)29.56 "Hg (Aug 20, 5:56 PM)
Average93 °F20%29.75 "Hg
* Reported Aug 19 5:56 PM — Sep 3 5:56 PM, Paradise, Weather by CustomWeather, © 2015

Note: Actual official high and low records may vary slightly from our data, if they occured in-between our weather recording intervals... More about our weather records

Advertising

Paradise weather history for previous 24 hours

 ConditionsComfort  
Time TempWeatherWind HumidityBarometerVisibility
5:56 PM
Thu, Sep 3
96 °FPassing clouds.14 mph10%29.58 "Hg10 mi
4:56 PM98 °FPassing clouds.14 mph9%29.57 "Hg10 mi
3:56 PM98 °FPassing clouds.15 mph9%29.59 "Hg10 mi
2:56 PM98 °FScattered clouds.12 mph10%29.61 "Hg10 mi
1:56 PM97 °FScattered clouds.No wind11%29.64 "Hg10 mi
12:56 PM96 °FScattered clouds.7 mph11%29.67 "Hg10 mi
11:56 AM95 °FScattered clouds.16 mph12%29.70 "Hg10 mi
10:56 AM92 °FScattered clouds.10 mph17%29.72 "Hg10 mi
9:56 AM88 °FScattered clouds.12 mph18%29.75 "Hg10 mi
8:56 AM86 °FScattered clouds.10 mph16%29.75 "Hg10 mi
7:56 AM82 °FScattered clouds.6 mph18%29.75 "Hg10 mi
6:56 AM81 °FPassing clouds.7 mph17%29.73 "Hg10 mi
5:56 AM79 °FPassing clouds.7 mph22%29.72 "Hg10 mi
4:56 AM81 °FPassing clouds.9 mph24%29.71 "Hg10 mi
3:56 AM83 °FPassing clouds.6 mph24%29.71 "Hg10 mi
2:56 AM84 °FPassing clouds.6 mph24%29.71 "Hg10 mi
1:56 AM85 °FPassing clouds.6 mph24%29.70 "Hg10 mi
12:56 AM86 °FPassing clouds.7 mph24%29.71 "Hg10 mi
11:56 PM
Wed, Sep 2
87 °FPassing clouds.9 mph21%29.72 "Hg10 mi
10:56 PM88 °FPassing clouds.9 mph20%29.71 "Hg10 mi
9:56 PM90 °FPassing clouds.14 mph14%29.71 "Hg10 mi
8:56 PM91 °FPassing clouds.10 mph14%29.70 "Hg10 mi
7:56 PM93 °FScattered clouds.12 mph14%29.68 "Hg10 mi
Weather by CustomWeather, © 2015

See weather overviewHow to use our weather pages